Showing default

ASTRA 1B, 21139

Orbit data source: Space-Track

ASTRA 1B, 21139 is a payload satellite owned by SES (LU) in GEO that was launched on Sat, 02 Mar 1991 UTC via an ARIANE 44LP launch vehicle from the French Guiana (FRGUI). Payload-class satellites include a variety of spacecraft equipped with specific instruments for various scientific and technological missions. These include communications satellites like Starlink; space stations such as the ISS; scientific satellites like the Hubble; Earth observation satellites from companies like Planet Labs, Umbra, and HawkEye 360; GPS; miniature CubeSats for education and research; and military/defense satellites.

Loading next visibility...
Identifier
21139, 1991-015A
Orbit
GEO
Country
Flag of LULU / SES
Related business
Manufacturer
GE/East Windsor
Mission
Non-operational Commercial Communications
Bus & Motor
AS5000, 2X LEROS 1
Mass
2,580 kg wet, 1,177 kg dry
Launch date (UTC)
1991-03-02 (35 years ago)
Launch vehicle
ARIANE 44LP
Launch site
French Guiana (FRGUI)
Object type
Payload
Rocket body
Debris
Shape & HBR
Hex Poly + 2 Pan, 12.2 m
Radar Cross Section
18.796 m², Large (>1 m²)

Expand to show TLE details & history
Last TLE update: 2 days ago

TLE from 2 days ago
0 ASTRA 1B
1 21139U 91015A   26171.34136207 -.00000010  00000-0  00000+0 0  9996
2 21139  13.3713  22.1973 0009200  12.2021 233.5444  0.98509364116310
Epoch: 2026-06-20T08:11Z
TLE epoch observation values (Epoch: 2026-06-20T08:11:33.682Z)
Latitude
-12.186°
Longitude
-124.16794°
Altitude
36,313.494 km
Speed
3.055 km/s
True Right ascension
17h 49m 07s
True Declination
-12° 10' 27"
Sunlit
Object was in daylight at epoch
Visualization orbit readout
Latitude
Unknown
Longitude
Unknown
Altitude
Unknown
Speed
Unknown
Apparent Right ascension
Unknown
Apparent Declination
Unknown
Sunlit
N/A
Visualization observer readout
Local Sidereal Time
00:51:29
Azimuth
Unknown
Elevation
Unknown
Doppler factor
Unknown
Orbital elements
Apogee altitude
36,328.246 km
Perigee altitude
36,249.739 km
Semi-major axis
42,667.13 km
Eccentricity
0.00092
Inclination
13.3713°
RAAN
22.1973°
Arg. of periapsis
12.2021°
True anomaly
233.45966°
Mean anomaly
233.5444°
Eccentric anomaly
233.50203°
Mean motion
0.24627 °/min
Orbital period
1,461.84 mins
BSTAR
0
Loading maneuver chart data...
Computing Atmospheric mass density...

Documentation

Showing up to 5 results
|